Location: DaVinci Observatory
(43.1080°N, 78.6453°W)
Time: 22:25:16
(UTC-04:00)

Tiangong 1 - Pass Details

Date: 07 October 2017
Orbit: 292 x 319 km, 42.8° (Epoch: 22 October)

Event Time Altitude Azimuth Distance (km) Brightness Sun altitude
Rises 20:20:17 0° 259° (W) 2,032 6.0 -18.2°
Reaches altitude 10° 20:22:16 10° 257° (WSW) 1,198 4.6 -18.6°
Enters shadow 20:24:25 51° 242° (WSW) 397 1.4 -19.0°
